• în România
  • Lista ţărilor
  • Pe 7 zile
  • Temperatura apei
  • Hartă satelitară
  • Meteo pe hartă
  • Widget-uri
  • user-avatar
    Intrare

    Meteo pe oră la Lezhe

    Astăzi, 22 Octombrie, Luni

    Timp Temperatura Precipitaţii Vânt Presiune Umiditate
    00:00 +12°C° 0.1 mm 4 m/s 738 mmHg 73%
    01:00 +11°C° 0 mm 4 m/s 738 mmHg 75%
    02:00 +11°C° 0 mm 4 m/s 738 mmHg 75%
    03:00 +11°C° 0 mm 4 m/s 738 mmHg 76%
    04:00 +11°C° 0 mm 4 m/s 738 mmHg 76%
    05:00 +11°C° 0 mm 4 m/s 738 mmHg 76%
    06:00 +11°C° 0 mm 4 m/s 738 mmHg 75%
    07:00 +12°C° 0 mm 5 m/s 738 mmHg 74%
    08:00 +14°C° 0 mm 5 m/s 738 mmHg 68%
    09:00 +16°C° 0 mm 5 m/s 738 mmHg 62%
    10:00 +17°C° 0 mm 5 m/s 738 mmHg 56%
    11:00 +19°C° 0 mm 4 m/s 738 mmHg 54%
    12:00 +19°C° 0 mm 4 m/s 737 mmHg 52%
    13:00 +20°C° 0 mm 4 m/s 737 mmHg 50%
    14:00 +19°C° 0 mm 4 m/s 737 mmHg 53%
    15:00 +18°C° 0 mm 4 m/s 736 mmHg 57%
    16:00 +17°C° 0 mm 4 m/s 736 mmHg 60%
    17:00 +17°C° 0.2 mm 4 m/s 736 mmHg 65%
    18:00 +15°C° 0.2 mm 4 m/s 737 mmHg 69%
    19:00 +14°C° 0.2 mm 3 m/s 737 mmHg 74%
    20:00 +14°C° 0.6 mm 3 m/s 737 mmHg 75%
    21:00 +14°C° 0.6 mm 3 m/s 738 mmHg 77%
    22:00 +14°C° 0.6 mm 3 m/s 738 mmHg 78%
    23:00 +13°C° 1.2 mm 4 m/s 738 mmHg 79%

    Mâine, 23 Octombrie, Marţi

    Timp Temperatura Precipitaţii Vânt Presiune Umiditate
    00:00 +13°C° 1.2 mm 4 m/s 738 mmHg 81%
    01:00 +13°C° 1.2 mm 4 m/s 738 mmHg 82%
    02:00 +13°C° 1 mm 4 m/s 738 mmHg 82%
    03:00 +13°C° 1 mm 4 m/s 738 mmHg 82%
    04:00 +12°C° 1 mm 4 m/s 738 mmHg 82%
    05:00 +13°C° 0.4 mm 4 m/s 738 mmHg 81%
    06:00 +13°C° 0.4 mm 4 m/s 738 mmHg 80%
    07:00 +13°C° 0.4 mm 4 m/s 738 mmHg 79%
    08:00 +14°C° 0.1 mm 4 m/s 739 mmHg 74%
    09:00 +15°C° 0.1 mm 4 m/s 739 mmHg 70%
    10:00 +17°C° 0.1 mm 4 m/s 739 mmHg 65%
    11:00 +18°C° 0 mm 4 m/s 738 mmHg 61%
    12:00 +18°C° 0 mm 4 m/s 738 mmHg 57%
    13:00 +19°C° 0 mm 4 m/s 738 mmHg 54%
    14:00 +19°C° 0 mm 3 m/s 738 mmHg 55%
    15:00 +19°C° 0 mm 3 m/s 737 mmHg 55%
    16:00 +18°C° 0 mm 3 m/s 737 mmHg 56%
    17:00 +17°C° 0 mm 3 m/s 738 mmHg 61%
    18:00 +14°C° 0 mm 3 m/s 738 mmHg 65%
    19:00 +13°C° 0 mm 3 m/s 738 mmHg 70%
    20:00 +12°C° 0 mm 3 m/s 738 mmHg 72%
    21:00 +12°C° 0 mm 3 m/s 738 mmHg 74%
    22:00 +11°C° 0 mm 3 m/s 738 mmHg 76%
    23:00 +11°C° 0 mm 3 m/s 738 mmHg 76%

    Poimâine, 24 Octombrie, Miercuri

    Timp Temperatura Precipitaţii Vânt Presiune Umiditate
    00:00 +11°C° 0 mm 3 m/s 738 mmHg 77%
    01:00 +11°C° 0 mm 3 m/s 737 mmHg 78%
    02:00 +10°C° 0 mm 2 m/s 737 mmHg 76%
    03:00 +10°C° 0 mm 2 m/s 737 mmHg 74%
    04:00 +10°C° 0 mm 2 m/s 736 mmHg 72%
    05:00 +12°C° 0 mm 2 m/s 736 mmHg 68%
    06:00 +12°C° 0 mm 2 m/s 736 mmHg 63%
    07:00 +13°C° 0 mm 2 m/s 736 mmHg 59%
    08:00 +15°C° 0 mm 1 m/s 735 mmHg 52%
    09:00 +19°C° 0 mm 1 m/s 735 mmHg 45%
    10:00 +21°C° 0 mm 1 m/s 735 mmHg 38%
    11:00 +21°C° 0 mm 2 m/s 735 mmHg 38%
    12:00 +21°C° 0 mm 3 m/s 734 mmHg 38%
    13:00 +22°C° 0 mm 3 m/s 734 mmHg 38%
    14:00 +21°C° 0 mm 3 m/s 733 mmHg 43%
    15:00 +20°C° 0 mm 3 m/s 733 mmHg 47%
    16:00 +19°C° 0 mm 3 m/s 733 mmHg 51%
    17:00 +18°C° 0 mm 3 m/s 733 mmHg 56%
    18:00 +16°C° 0 mm 3 m/s 734 mmHg 60%
    19:00 +15°C° 0 mm 2 m/s 734 mmHg 65%
    20:00 +15°C° 0 mm 2 m/s 734 mmHg 65%
    21:00 +15°C° 0 mm 2 m/s 735 mmHg 65%
    22:00 +15°C° 0 mm 2 m/s 735 mmHg 65%
    23:00 +14°C° 0 mm 2 m/s 735 mmHg 67%

    25 Octombrie, Joi

    Timp Temperatura Precipitaţii Vânt Presiune Umiditate
    00:00 +12°C° 0 mm 3 m/s 736 mmHg 70%
    01:00 +12°C° 0 mm 3 m/s 736 mmHg 73%
    02:00 +11°C° 0 mm 3 m/s 736 mmHg 72%
    03:00 +11°C° 0 mm 3 m/s 737 mmHg 72%
    04:00 +10°C° 0 mm 3 m/s 737 mmHg 72%
    05:00 +10°C° 0 mm 3 m/s 737 mmHg 68%
    06:00 +10°C° 0 mm 3 m/s 738 mmHg 63%
    07:00 +10°C° 0 mm 3 m/s 738 mmHg 59%
    08:00 +12°C° 0 mm 3 m/s 738 mmHg 54%
    09:00 +14°C° 0 mm 3 m/s 738 mmHg 48%
    10:00 +17°C° 0 mm 3 m/s 739 mmHg 42%
    11:00 +18°C° 0 mm 3 m/s 738 mmHg 41%
    12:00 +18°C° 0 mm 3 m/s 738 mmHg 41%
    13:00 +19°C° 0 mm 3 m/s 738 mmHg 40%
    14:00 +19°C° 0 mm 3 m/s 737 mmHg 44%
    15:00 +18°C° 0 mm 3 m/s 737 mmHg 47%
    16:00 +17°C° 0 mm 3 m/s 737 mmHg 51%
    17:00 +16°C° 0 mm 2 m/s 737 mmHg 56%
    18:00 +15°C° 0 mm 2 m/s 737 mmHg 60%
    19:00 +13°C° 0 mm 1 m/s 738 mmHg 65%
    20:00 +13°C° 0 mm 1 m/s 738 mmHg 65%
    21:00 +13°C° 0 mm 1 m/s 738 mmHg 64%
    22:00 +13°C° 0 mm 1 m/s 738 mmHg 64%
    23:00 +12°C° 0 mm 1 m/s 738 mmHg 64%

    26 Octombrie, Vineri

    Timp Temperatura Precipitaţii Vânt Presiune Umiditate
    00:00 +12°C° 0 mm 2 m/s 738 mmHg 65%
    01:00 +12°C° 0 mm 2 m/s 738 mmHg 65%
    02:00 +12°C° 0 mm 2 m/s 738 mmHg 67%
    03:00 +12°C° 0 mm 2 m/s 738 mmHg 68%
    04:00 +12°C° 0 mm 2 m/s 738 mmHg 70%
    05:00 +12°C° 0 mm 2 m/s 738 mmHg 70%
    06:00 +13°C° 0 mm 2 m/s 738 mmHg 69%
    07:00 +13°C° 0 mm 2 m/s 738 mmHg 69%
    08:00 +15°C° 0 mm 2 m/s 738 mmHg 62%
    09:00 +18°C° 0 mm 2 m/s 738 mmHg 54%
    10:00 +20°C° 0 mm 2 m/s 738 mmHg 47%
    11:00 +21°C° 0 mm 2 m/s 738 mmHg 46%
    12:00 +21°C° 0 mm 2 m/s 738 mmHg 45%
    13:00 +23°C° 0 mm 2 m/s 738 mmHg 44%
    14:00 +21°C° 0 mm 2 m/s 737 mmHg 47%
    15:00 +20°C° 0 mm 2 m/s 737 mmHg 50%
    16:00 +19°C° 0 mm 2 m/s 737 mmHg 53%
    17:00 +18°C° 0 mm 2 m/s 737 mmHg 57%
    18:00 +16°C° 0 mm 2 m/s 738 mmHg 61%
    19:00 +15°C° 0 mm 2 m/s 738 mmHg 65%
    20:00 +15°C° 0 mm 2 m/s 738 mmHg 66%
    21:00 +15°C° 0 mm 2 m/s 738 mmHg 67%
    22:00 +13°C° 0 mm 3 m/s 739 mmHg 68%
    23:00 +13°C° 0 mm 3 m/s 738 mmHg 70%

    27 Octombrie, Sâmbătă

    Timp Temperatura Precipitaţii Vânt Presiune Umiditate
    00:00 +14°C° 0 mm 3 m/s 738 mmHg 73%
    01:00 +14°C° 0 mm 3 m/s 738 mmHg 75%
    02:00 +14°C° 0 mm 3 m/s 738 mmHg 76%
    03:00 +14°C° 0 mm 3 m/s 738 mmHg 77%
    04:00 +13°C° 0 mm 3 m/s 738 mmHg 77%
    05:00 +14°C° 0.1 mm 3 m/s 738 mmHg 76%
    06:00 +14°C° 0.1 mm 3 m/s 738 mmHg 76%
    07:00 +16°C° 0.1 mm 3 m/s 738 mmHg 75%
    08:00 +17°C° 0.1 mm 4 m/s 738 mmHg 73%
    09:00 +18°C° 0.1 mm 4 m/s 738 mmHg 71%
    10:00 +20°C° 0.1 mm 5 m/s 738 mmHg 68%
    11:00 +20°C° 0.1 mm 5 m/s 737 mmHg 67%
    12:00 +21°C° 0.1 mm 6 m/s 737 mmHg 66%
    13:00 +21°C° 0.1 mm 6 m/s 736 mmHg 65%
    14:00 +21°C° 0.1 mm 6 m/s 736 mmHg 68%
    15:00 +21°C° 0.1 mm 6 m/s 736 mmHg 71%
    16:00 +20°C° 0.1 mm 6 m/s 735 mmHg 74%
    17:00 +18°C° 0.2 mm 7 m/s 735 mmHg 79%
    18:00 +17°C° 0.2 mm 7 m/s 735 mmHg 84%
    19:00 +16°C° 0.2 mm 7 m/s 735 mmHg 89%
    20:00 +16°C° 0.3 mm 7 m/s 735 mmHg 89%
    21:00 +16°C° 0.3 mm 7 m/s 736 mmHg 88%
    22:00 +16°C° 0.3 mm 7 m/s 736 mmHg 88%
    23:00 +16°C° 0.3 mm 7 m/s 735 mmHg 88%

    28 Octombrie, Duminică

    Timp Temperatura Precipitaţii Vânt Presiune Umiditate
    00:00 +16°C° 0.3 mm 7 m/s 735 mmHg 87%
    01:00 +16°C° 0.3 mm 7 m/s 735 mmHg 86%
    02:00 +16°C° 0.3 mm 7 m/s 735 mmHg 86%
    03:00 +16°C° 0.3 mm 7 m/s 735 mmHg 85%
    04:00 +16°C° 0.3 mm 7 m/s 735 mmHg 84%
    05:00 +16°C° 0.1 mm 7 m/s 735 mmHg 83%
    06:00 +15°C° 0.1 mm 7 m/s 735 mmHg 82%
    07:00 +15°C° 0.1 mm 7 m/s 735 mmHg 80%
    08:00 +16°C° 0.1 mm 8 m/s 735 mmHg 74%
    09:00 +18°C° 0.1 mm 8 m/s 735 mmHg 67%
    10:00 +20°C° 0.1 mm 8 m/s 735 mmHg 60%
    11:00 +20°C° 0.9 mm 8 m/s 735 mmHg 63%
    12:00 +20°C° 0.9 mm 8 m/s 735 mmHg 66%
    13:00 +20°C° 0.9 mm 8 m/s 735 mmHg 69%
    14:00 +18°C° 2.6 mm 7 m/s 735 mmHg 73%
    15:00 +17°C° 2.6 mm 7 m/s 735 mmHg 78%
    16:00 +17°C° 2.6 mm 6 m/s 735 mmHg 82%
    17:00 +17°C° 2.9 mm 6 m/s 735 mmHg 84%
    18:00 +16°C° 2.9 mm 5 m/s 735 mmHg 85%
    19:00 +16°C° 2.9 mm 5 m/s 735 mmHg 86%
    20:00 +16°C° 0.9 mm 5 m/s 736 mmHg 85%
    21:00 +16°C° 0.9 mm 5 m/s 736 mmHg 83%
    22:00 +16°C° 0.9 mm 5 m/s 736 mmHg 81%
    23:00 +16°C° 0.3 mm 5 m/s 736 mmHg 80%
    Arată mai mult